User: anonymous
Location: Unspecified
(0.0000°N, 0.0000°E)
Time: 04:33:37
(UTC+02:00)
Language:

Delta 2 Rocket - Orbit

View from above orbital plane
View from above orbital plane
View from above satellite
View from above satellite

Ground track
Ground track

The orbit data is extracted from the following two-line orbital elements,

1 20453U 90008B   14192.80900169  .00003153  00000-0  20333-3 0   189
2 20453 035.6287 012.5362 0325094 303.1481 053.8432 14.73554813289419
Epoch (UTC): 11 July 2014 19:24:57
Eccentricity: 0.0325094
inclination: 35.6287°
perigee height: 421 km
apogee height: 878 km
right ascension of ascending node: 12.5362°
argument of perigee: 303.1481°
revolutions per day: 14.73554813
mean anomaly at epoch: 53.8432°
orbit number at epoch: 28941

The dashed part of the orbit path shows where the satellite is in the earth's shadow,  

DLR